Regional Weather Roundup
Issued by NWS

Home | Current Version | Previous Version | Graphics & Text | Print | Product List | Glossary On
Versions: 1 2 3 4 5 6 7 8 9 10 11 12 13 14 15 16 17 18 19 20 21 22 23 24 25 26 27 28 29 30 31 32 33 34 35 36 37 38 39 40 41 42 43 44 45 46 47 48 49 50
222
ASUS45 KBOU 211510
RWRCO

WEATHER ROUNDUP FOR COLORADO
NATIONAL WEATHER SERVICE DENVER/BOULDER CO
800 AM MST TUE NOV 21 2017

NOTE: "FAIR" INDICATES FEW OR NO CLOUDS BELOW 12000 FEET WITH NO
SIGNIFICANT WEATHER AND/OR OBSTRUCTIONS TO VISIBILITY.

COZ001>005-013-030-031-211600-
...NORTHWEST COLORADO...

CITY           SKY/WX    TMP DP  RH WIND       PRES   REMARKS
CRAIG          CLOUDY    35  31  85 CALM      30.29R
HAYDEN         NOT AVBL
MEEKER         CLOUDY    38  31  76 CALM      30.31R
RABBIT EARS PA SNOW      27  27 100 W10G21    30.29R VSB 1/4 WCI  17
STEAMBOAT SPGS CLOUDY    32  32  99 CALM      30.29R VSB 3/4
WALDEN         CLOUDY    32  27  80 CALM      30.27R
$$

COZ006>008-011-211600-
...WEST CENTRAL VALLEYS...

CITY           SKY/WX    TMP DP  RH WIND       PRES   REMARKS
GRAND JUNCTION CLOUDY    37  23  56 SE3       30.34R
MONTROSE       CLOUDY    35  26  69 E5        30.36R WCI  31
EAGLE          FAIR      34  27  75 E8        30.33R WCI  27
RIFLE          CLOUDY    34  30  85 CALM      30.37R
DELTA          MOCLDY    35  23  63 SW3       30.36R
NUCLA          FAIR      32  12  43 CALM      30.37R
$$

COZ017>023-064>068-211600-
...SOUTHWEST COLORADO...

CITY           SKY/WX    TMP DP  RH WIND       PRES   REMARKS
DURANGO        FAIR      25  16  68 E3        30.27R
CORTEZ         FAIR      30  17  58 NE6       30.29R WCI  24
PAGOSA SPRINGS FAIR      30  18  61 CALM      30.28R
TELLURIDE      CLOUDY    38  18  45 CALM      30.40R
WOLF CREEK PAS FAIR      28  23  80 NW13G28   30.41R WCI  18
$$

COZ009-010-012-014-032>034-037-058>063-211600-
...CENTRAL COLORADO...

CITY           SKY/WX    TMP DP  RH WIND       PRES   REMARKS
ASPEN          CLOUDY    30  27  88 CALM      30.32R
BUENA VISTA    FAIR      40  28  63 W9        30.26R
COPPER MTN     SNOW      28  23  80 MISG      30.33R VSB 1/4
BERTHOUD PASS  HVY SNOW  21  10  63 NW39      30.25R VSB<1/4 WCI   1
COTTONWOOD PAS PTSUNNY   37  30  75 N9G20     30.28R
GUNNISON       FAIR      27  23  85 E3        30.35R
KREMMLING      CLOUDY    37  32  81 CALM      30.30R
LEADVILLE      LGT SNOW  28  25  88 CALM      30.30R VSB 3/4
MONARCH PASS   CLOUDY    21  19  93 W24       30.46R WCI   4
SALIDA         FAIR      41  26  55 N13G22    30.33R
SUNLIGHT       FOG       28  27  93 W8G23     30.39R VSB 1/4 WCI  20
WILKERSON PASS LGT SNOW  28  23  80 N15G25    30.33R WCI  17
$$

COZ069>075-211600-
...SAN LUIS VALLEY/SANGRE DE CRISTO MOUNTAINS...

CITY           SKY/WX    TMP DP  RH WIND       PRES   REMARKS
ALAMOSA        FAIR      28  14  55 CALM      30.26R
DEL NORTE      FAIR      37  11  34 W5        30.26F
LA VETA PASS   FAIR      34  18  51 NW7G21      N/A  WCI  28
SAGUACHE       FAIR      36  21  55 NW10      30.29S
$$

COZ035-036-038>040-211600-
...NORTHERN COLORADO FRONT RANGE...

CITY           SKY/WX    TMP DP  RH WIND       PRES   REMARKS
DENVER INTL AP CLOUDY    43  36  76 NE22      30.22R
DMNS CITY PARK   N/A     46  34  62 N8G28     30.25R
AURORA         LGT RAIN  43  36  76 NE12      30.23R
FRONT RANGE AP DRIZZLE   45  39  81 N16G26    30.23R
ERIE MUNI ARPT CLOUDY    46  35  66 N17G25    30.29R
BOULDER MUN AP FAIR      43  34  70 N15G23    30.23R
CENTENNIAL     PTSUNNY   44  35  70 NE14      30.22R
BROOMFIELD     PTSUNNY   45  34  65 N23G35    30.23R
FORT COLLINS   LGT RAIN  39  36  87 NE12      30.26R
LONGMONT       PTSUNNY   46  36  67 N17G26    30.24R
$$

COZ041-046-047-076>085-087-088-211600-
...PIKES PEAK/PALMER DIVIDE AND SOUTHERN FOOTHILLS...

CITY           SKY/WX    TMP DP  RH WIND       PRES   REMARKS
COLO. SPRINGS  LGT RAIN  44  33  65 NE21      30.19R
A. F. ACADEMY  LGT RAIN  43  32  65 NE16      30.21R
SCHRIEVER AFB  PTSUNNY   43  34  70 NE21G26   30.21R
CHEYENNE MTN   PTSUNNY   46  24  41 N6        30.15R
ELLICOTT       LGT RAIN N/A N/A N/A NE12      30.20R
FALCON         LGT RAIN  38  36  92 NE12      30.24R
FORT CARSON    PTSUNNY   45  33  62 NE24      30.17R
LIMON          CLOUDY    40  34  79 N12       30.22R
MONUMENT HILL  LGT RAIN  36  32  87 NE12G18   30.25R
CANON CITY     FAIR      50  30  46 S5        30.17R
WALSENBURG     FAIR      48  23  37 W3        30.18R
TRINIDAD       CLOUDY    46  20  35 N8        30.17R
$$

COZ042>045-048>051-090-091-211600-
...NORTHEAST COLORADO...

CITY           SKY/WX    TMP DP  RH WIND       PRES   REMARKS
GREELEY ARPT   PTSUNNY   41  29  62 NE14      30.26R
AKRON          FAIR      33  23  66 NE14      30.25R WCI  23
BURLINGTON     FAIR      39  25  57 N26G33    30.18R
WRAY           NOT AVBL
YUMA           FAIR      32  25  74 N14G24    30.24R WCI  22
STERLING       FAIR      34  28  80 NE7       30.25R WCI  28
HOLYOKE        FAIR      37  30  75 N14       30.25R
FORT MORGAN    FAIR      34  23  63 NE13      30.26R WCI  25
$$

COZ086-089-092>099-211600-
...SOUTHEAST COLORADO...

CITY           SKY/WX    TMP DP  RH WIND       PRES   REMARKS
PUEBLO         CLOUDY    51  28  41 NE24      30.18R
LA JUNTA       CLOUDY    51  28  41 NE12      30.16R
LAMAR          CLOUDY    55  28  35 N20       30.13R
SPRINGFIELD      N/A     49  26  41 N22G30    30.12R
$$




USA.gov is the U.S. government's official web portal to all federal, state and local government web resources and services.